OK2ILA-3 Weather Reports


time (UTC)temp
C
wind
direction
speed
KPH
gust
KPH
rain 1hr
cm
rain 24hr
cm
rain mn
cm
humidity
%
barometer
mb
20260508041711 7 1 8.0 0.0 0.00 0.05 0.00 79 5171.2
20260508040700 7 12 6.4 0.0 0.00 0.05 0.00 5 5171.2
20260508035653 7 354 3.2 0.0 0.00 0.05 0.00 100 5171.2
20260508034649 7 347 4.8 0.0 0.00 0.05 0.00 3 5171.2
20260508033643 7 46 3.2 0.0 0.00 0.05 0.00 100 1641.2
20260508032637 7 7 4.8 0.0 0.00 0.03 0.00 2 1641.2
20260508031630 7 29 0.0 0.0 0.00 0.03 0.00 5 470.4
20260508030624 7 35 1.6 0.0 0.00 0.03 0.00 12 470.4
20260508025617 7 60 1.6 0.0 0.00 0.03 0.00 79 470.4
20260508024611 7 70 6.4 0.0 0.00 0.03 0.00 1 4096.2
20260508023606 7 64 3.2 0.0 0.00 0.00 0.00 3 4096.2
20260508022559 8 347 8.0 0.0 0.00 0.00 0.00 3 4096.2
20260508021553 8 322 9.7 0.0 0.00 0.00 0.00 25 4096.2
20260508020549 8 15 0.0 0.0 0.00 0.00 0.00 12 4096.2
20260508015542 8 40 0.0 0.0 0.00 0.00 0.00 12 4096.2
20260508014535 8 343 1.6 0.0 0.00 0.00 0.00 79 4096.2
20260508013530 8 352 3.2 0.0 0.00 0.00 0.00 100 4096.2
20260508012523 7 358 6.4 0.0 0.00 0.00 0.00 100 4352.0
20260508011517 8 337 4.8 0.0 0.00 0.00 0.00 3 4352.0
20260508010512 8 358 11.3 0.0 0.00 0.00 0.00 100 100.8
20260508005504 8 11 4.8 0.0 0.00 0.00 0.00 79 6246.5
20260508004458 8 337 6.4 0.0 0.00 0.00 0.00 51 6246.5
20260508003453 8 334 6.4 0.0 0.00 0.00 0.00 4 6246.5
20260508002447 8 338 6.4 0.0 0.00 0.00 0.00 12 6246.5
20260508001442 8 23 9.7 0.0 0.00 0.00 0.00 79 188.8
20260508000436 8 348 9.7 0.0 0.00 0.00 0.00 79 4352.0
20260507235429 8 336 14.5 0.0 0.00 10.39 0.00 2 97.6
20260507234423 8 47 6.4 0.0 0.00 0.00 0.00 3 19.2
20260507233418 8 341 3.2 0.0 0.00 0.00 0.00 51 19.2
20260507232411 8 302 9.7 0.0 0.00 0.00 0.00 37 19.2
20260507231405 8 39 6.4 0.0 0.00 0.00 0.00 6 19.2
20260507230359 8 60 0.0 0.0 0.00 0.00 0.00 3 47.5
20260507225352 8 47 4.8 0.0 0.00 0.00 0.00 51 47.5
20260507224347 8 16 4.8 0.0 0.00 0.00 0.00 51 1641.4
20260507223343 8 54 4.8 0.0 0.00 0.00 0.00 3 1641.4
20260507222337 8 338 4.8 0.0 0.00 0.00 0.00 68 5683.2
20260507221332 8 16 9.7 0.0 0.00 0.00 0.00 39 4096.7
20260507220325 8 0 4.8 0.0 0.00 0.00 0.00 25 4352.0
20260507215316 8 338 9.7 0.0 0.00 0.15 0.00 54 4352.0
20260507214311 8 344 9.7 0.0 0.00 0.15 0.00 12 9.6
20260507213306 8 213 4.8 0.0 0.00 0.15 0.00 8 2.2
20260507212259 8 358 9.7 0.0 0.00 0.15 0.00 100 777.6
20260507211253 8 78 8.0 0.0 0.00 0.13 0.00 52 777.6
20260507210247 9 18 6.4 0.0 0.00 0.13 0.00 63 22.4
20260507205241 9 320 4.8 0.0 0.00 0.13 0.00 37 22.4
20260507204234 9 47 4.8 0.0 0.00 0.10 0.00 1 665.7
20260507203231 9 61 4.8 0.0 0.00 0.10 0.00 3 4096.8
20260507202223 9 9 3.2 0.0 0.00 0.10 0.00 51 4096.8
20260507200213 10 357 8.0 0.0 0.00 0.10 0.00 1 6067.3
20260507195205 10 334 14.5 0.0 0.00 0.10 0.00 4 155.8
20260507194201 10 7 11.3 0.0 0.00 0.10 0.00 32 155.8
20260507193156 10 47 3.2 0.0 0.00 0.10 0.00 13 155.8
20260507192148 10 358 4.8 0.0 0.00 0.10 0.00 12 4099.1
20260507191143 10 355 8.0 0.0 0.00 0.10 0.00 25 4099.1
20260507190139 10 358 6.4 0.0 0.00 0.10 0.00 31 4352.0
20260507185132 10 341 3.2 0.0 0.00 0.10 0.00 13 1561.6
20260507184127 10 7 4.8 0.0 0.00 0.10 0.00 13 1561.6
20260507183121 11 261 0.0 0.0 0.00 0.10 0.00 13 5.1
20260507182115 11 14 0.0 0.0 0.00 0.08 0.00 54 53.7
20260507181111 11 80 0.0 0.0 0.00 0.08 0.00 12 8.1
20260507180106 12 250 0.0 0.0 0.00 0.03 0.00 1 8.1
20260507174059 12 295 4.8 0.0 0.00 0.00 0.00 3 8.1
20260507173056 12 286 4.8 0.0 0.00 0.00 0.00 5 2585.6
20260507172047 13 341 8.0 0.0 0.00 0.00 0.00 1 2585.6
20260507171042 13 333 6.4 0.0 0.00 0.00 0.00 12 4352.0
20260507170040 14 288 4.8 0.0 0.00 0.00 0.00 1 4352.0
20260507165035 15 329 1.6 0.0 0.00 0.00 0.00 12 979.2
20260507164027 15 11 0.0 0.0 0.00 0.00 0.00 12
20260507163025 16 85 0.0 0.0 0.00 0.00 0.00 12 11.5
20260507162019 17 161 0.0 0.0 0.00 0.00 0.00 54 1019.2
20260507161013 17 130 0.0 0.0 0.00 0.00 0.00 3 5738.5
20260507160009 18 163 0.0 0.0 0.00 0.00 0.00 88 5738.5
20260507155003 18 226 0.0 0.0 0.00 0.00 0.00 2 5738.5
20260507153959 18 126 3.2 0.0 0.00 0.00 0.00 4 5738.5
20260507152956 18 188 4.8 0.0 0.00 0.00 0.00 1 5738.5
20260507151947 18 12 1.6 0.0 0.00 0.00 0.00 2 5738.5
20260507151351 18 57 0.0 0.0 0.00 0.00 0.00 12 5738.5
20260507150943 18 57 0.0 0.0 0.00 0.00 0.00 12 5738.5
20260507145937 18 161 3.2 0.0 0.00 0.00 0.00 100 4352.0
20260507144931 18 320 0.0 0.0 0.00 0.00 0.00 3 4352.0
20260507143926 18 85 3.2 0.0 0.00 0.00 0.00 62 4352.0
20260507142922 17 171 0.0 0.0 0.00 0.00 0.00 1 4352.0
20260507141915 18 205 3.2 0.0 0.00 0.00 0.00 53 4352.0
20260507135902 19 187 0.0 0.0 0.00 0.00 0.00 11 8.1
20260507134853 18 156 1.6 0.0 0.00 0.00 0.00 53 8.1
20260507133848 18 167 1.6 0.0 0.00 0.00 0.00 1 8.1
20260507132839 19 174 1.6 0.0 0.00 0.00 0.00 1 3840.0
20260507131833 20 11 0.0 0.0 0.00 0.00 0.00 1 3840.0
20260507130826 18 175 1.6 0.0 0.00 0.00 0.00 11 3840.0
20260507125821 18 208 4.8 0.0 0.00 0.00 0.00 55 361.6
20260507124816 18 168 0.0 0.0 0.00 0.00 0.00 1 361.6
20260507123813 18 317 0.0 0.0 0.00 0.00 0.00 3 3277.3
20260507122808 20 146 0.0 0.0 0.00 0.00 0.00 1 3690.6
20260507121804 19 108 0.0 0.0 0.00 0.00 0.00 85 3690.6
20260507120759 19 170 0.0 0.0 0.00 0.00 0.00 5 4.3
20260507115753 20 90 1.6 0.0 0.00 0.00 0.00 100 3609.8
20260507114745 20 106 1.6 0.0 0.00 0.00 0.00 3 3609.8
20260507113740 20 80 0.0 0.0 0.00 0.00 0.00 10 870.4
20260507112734 20 133 3.2 0.0 0.00 0.00 0.00 53 204.8
20260507111731 20 180 0.0 0.0 0.00 0.00 0.00 53 8.1
20260507110726 20 184 0.0 0.0 0.00 0.00 0.00 100 2048.5
20260507105719 19 102 0.0 0.0 0.00 0.00 0.00 12 2052.2
20260507104715 18 244 0.0 0.0 0.00 0.00 0.00 53 1096.0
20260507103710 20 226 0.0 0.0 0.00 0.00 0.00 79 1096.0
20260507102704 20 254 1.6 0.0 0.00 0.00 0.00 12 1096.0
20260507101700 19 74 0.0 0.0 0.00 0.00 0.00 5
20260507100655 19 149 0.0 0.0 0.00 0.00 0.00 53
20260507095648 20 172 3.2 0.0 0.00 0.00 0.00 71
20260507094641 19 258 0.0 0.0 0.00 0.00 0.00 1 460.8
20260507093637 20 178 1.6 0.0 0.00 0.00 0.00 51 460.8
20260507092631 20 226 1.6 0.0 0.00 0.00 0.00 3 4509.9
20260507091622 21 150 0.0 0.0 0.00 0.00 0.00 12
20260507090616 20 161 4.8 0.0 0.00 0.00 0.00 53
20260507085610 20 165 0.0 0.0 0.00 0.00 0.00 100
20260507084604 19 343 1.6 0.0 0.00 0.00 0.00 8
20260507083600 19 188 1.6 0.0 0.00 0.00 0.00 100
20260507082553 18 9 0.0 0.0 0.00 0.00 0.00 12 4915.7
20260507081550 17 154 0.0 0.0 0.00 0.00 0.00 25 4915.7
20260507080546 18 137 0.0 0.0 0.00 0.00 0.00 9 4915.7
20260507075539 17 205 0.0 0.0 0.00 0.00 0.00 15 4915.7
20260507074533 18 194 0.0 0.0 0.00 0.00 0.00 58 121.6
20260507073529 18 168 0.0 0.0 0.00 0.00 0.00 57 121.6
20260507072524 19 178 0.0 0.0 0.00 0.00 0.00 79 4352.0
20260507071514 18 170 0.0 0.0 0.00 0.00 0.00 5 68.2
20260507070505 18 188 0.0 0.0 0.00 0.00 0.00 12 17.0
20260507065451 16 203 0.0 0.0 0.00 0.00 0.00 2 8.1
20260507064447 16 174 0.0 0.0 0.00 0.00 0.00 100 8.1
20260507063442 15 164 0.0 0.0 0.00 0.00 0.00 1 3703.4
20260507062430 15 348 0.0 0.0 0.00 0.00 0.00 38 2461.3
20260507061422 14 172 0.0 0.0 0.00 0.00 0.00 1
20260507060410 13 174 0.0 0.0 0.00 0.00 0.00 53 5.4
20260507055358 13 208 0.0 0.0 0.00 0.00 0.00 12 5.4
20260507054350 12 223 1.6 0.0 0.00 0.00 0.00 3 5.4
20260507053327 12 158 0.0 0.0 0.00 0.00 0.00 8 5.4
20260507052308 12 203 0.0 0.0 0.00 0.00 0.00 5 4352.0
20260507051258 12 175 0.0 0.0 0.00 0.00 0.00 53 200.0
20260507050259 12 175 0.0 0.0 0.00 0.00 0.00 12 12.6
20260507045247 12 168 0.0 0.0 0.00 0.00 0.00 100 313.6
20260507044242 12 232 0.0 0.0 0.00 0.00 0.00 23 313.6